Wind_Speed
20 22 25 27 28 28 27 26 25 24 23 22 21 21 21 21 20 20 18 17 17 18 18 17 17 17 17 16 15 14 14 13 12 10 10 10 11 11 12 12 13 14 15 15 16 17 17 17 17
21 21 23 25 27 27 27 28 28 26 24 23 22 21 22 22 21 21 21 20 19 18 18 18 18 17 17 16 15 15 15 15 13 11 10 10 11 12 13 14 13 13 14 15 16 17 18 18 18
23 24 24 24 23 23 27 30 30 29 27 25 24 23 23 23 22 22 22 22 21 21 20 19 18 17 17 17 16 15 16 15 14 12 12 11 12 12 13 14 14 14 13 13 13 15 16 17 17
26 27 27 26 21 20 26 31 32 31 29 27 26 25 24 24 24 23 23 23 23 24 24 23 22 21 19 18 17 16 16 15 14 14 13 12 13 13 13 13 14 14 14 14 15 16 17 17 18
28 29 29 26 21 21 26 31 33 32 31 29 28 26 26 26 25 25 26 26 26 26 27 28 28 27 25 21 18 17 16 16 15 15 15 14 13 13 12 13 13 13 12 12 13 14 15 16 17
30 30 30 26 22 24 27 31 32 33 32 31 30 29 27 27 26 26 27 28 27 27 27 27 28 29 27 23 20 18 18 17 16 16 16 15 14 13 12 12 12 11 9 9 11 13 15 16 17
30 30 29 25 24 27 28 30 30 31 32 33 33 31 29 29 29 28 28 28 28 28 27 27 28 28 26 24 21 20 19 18 17 18 18 17 16 15 14 14 14 12 12 13 16 19 20 22 23
29 29 27 23 23 27 29 31 30 30 32 35 35 35 34 32 31 31 30 29 29 28 27 28 28 28 26 24 22 21 20 19 19 19 20 20 20 19 18 18 18 17 17 17 19 21 23 24 25
30 29 24 20 22 27 31 34 33 31 31 34 36 37 36 35 34 33 32 31 30 28 27 29 29 28 27 24 22 21 20 21 21 21 21 23 23 23 22 21 22 21 20 20 21 23 24 24 23
30 27 21 21 25 29 33 36 36 33 32 32 34 37 38 37 36 35 34 32 31 30 28 29 31 30 28 25 24 23 21 21 22 23 23 24 25 26 25 24 24 25 24 23 23 24 25 24 21
29 25 22 24 26 29 32 36 36 35 32 31 32 34 36 37 37 36 36 35 33 32 30 30 32 31 30 28 26 25 23 22 23 24 25 26 28 28 28 27 27 27 27 26 25 26 26 26 22
29 25 24 25 26 27 30 33 36 35 31 31 32 31 31 34 37 37 37 37 35 33 31 32 33 33 32 31 30 28 26 25 24 24 26 28 29 30 30 31 30 28 27 27 27 28 28 27 24
29 26 25 25 25 27 28 30 34 36 33 32 32 31 30 31 33 36 37 37 36 35 33 33 35 35 35 34 33 31 30 29 27 26 27 28 29 30 30 31 31 29 28 28 29 29 30 29 27
29 26 25 24 25 26 28 31 33 32 34 35 34 32 31 30 31 33 36 38 37 36 36 34 35 36 37 36 36 34 33 32 30 29 28 28 29 29 29 30 31 30 30 30 30 30 31 31 29
29 27 26 25 26 27 28 29 31 32 38 39 38 35 33 31 30 31 34 37 39 39 38 37 36 36 37 37 37 37 36 35 33 31 29 29 30 30 30 30 30 31 31 30 30 31 33 32 31
30 28 27 27 28 29 29 27 30 33 37 40 41 40 37 35 32 32 34 36 38 40 40 39 37 37 38 37 37 37 38 37 35 32 31 31 31 31 31 31 31 31 31 31 31 32 33 33 32
30 30 29 29 30 30 30 28 28 31 34 38 41 43 43 40 37 35 34 37 39 39 40 41 39 39 38 38 37 37 38 38 36 34 32 32 33 33 33 32 31 31 31 31 31 33 33 33 33
31 31 31 30 30 32 32 33 30 31 33 35 39 43 45 45 42 40 38 38 40 40 40 41 41 41 40 38 37 37 38 38 37 35 33 33 34 34 34 33 33 32 32 32 33 33 34 34 35
29 30 31 32 34 36 37 39 38 35 35 35 38 42 46 47 46 45 43 41 41 42 41 40 42 42 42 40 39 39 39 38 37 35 34 34 34 35 36 35 34 33 33 34 34 35 36 37 39
29 32 34 38 40 42 43 44 43 42 39 39 40 43 46 48 49 49 47 45 44 45 44 41 41 44 44 43 42 41 40 38 36 35 35 34 34 36 37 36 35 35 36 36 37 38 39 40 42
32 36 39 43 46 48 50 51 48 48 46 45 44 44 46 48 49 50 50 47 46 46 45 43 41 44 46 45 44 43 41 38 35 35 35 35 35 36 37 37 37 38 39 39 40 42 43 43 45
37 41 44 48 51 53 54 59 56 55 52 50 48 48 47 48 49 51 51 49 46 46 45 43 42 44 45 45 44 43 41 37 36 36 36 35 35 35 36 38 39 41 43 43 44 45 46 47 48
42 45 48 51 55 58 59 65 64 62 60 56 53 52 51 50 50 51 51 50 47 46 45 43 43 44 45 45 43 42 40 37 36 36 36 36 36 36 37 39 41 43 44 45 46 47 48 49 51
44 48 51 55 58 63 61 67 69 63 64 61 58 56 54 54 52 51 52 52 49 47 44 43 43 44 45 43 42 41 39 37 37 37 37 38 38 38 39 40 42 44 46 47 48 48 49 51 52
46 49 53 57 60 63 61 65 66 62 64 65 63 61 58 55 53 51 52 52 51 47 43 42 42 42 43 42 41 41 39 38 38 37 38 40 40 40 41 42 44 46 47 48 48 50 51 52 52
45 47 48 52 55 55 55 56 52 52 57 61 63 63 60 56 54 52 51 52 51 48 44 42 41 41 42 41 40 40 40 39 38 38 38 39 40 41 42 42 44 45 46 48 49 51 52 52 53
42 44 45 49 50 51 50 46 39 36 43 48 53 57 57 55 53 52 51 50 50 48 45 43 41 41 41 41 40 40 40 39 38 38 38 39 40 40 41 41 42 44 45 47 50 51 52 52 53
40 42 44 45 48 49 47 42 34 28 32 34 39 46 50 51 51 51 50 49 48 48 46 44 42 41 41 41 41 40 39 38 37 37 37 38 39 39 39 40 41 43 45 48 50 51 51 52 55
36 37 38 41 43 44 44 37 31 27 28 28 29 35 42 46 47 49 49 48 47 47 46 44 42 42 42 41 40 39 39 38 36 36 37 37 38 39 40 41 42 45 47 49 50 51 52 55 58
31 32 34 37 39 40 41 30 26 24 25 28 29 31 37 42 45 48 48 46 45 45 45 43 42 42 42 41 40 39 38 37 37 37 37 38 39 40 41 42 44 46 48 49 50 53 55 58 60
Wind_Direction
251 252 252 251 249 247 246 244 244 245 248 249 248 249 252 252 250 250 247 245 247 253 255 255 255 258 261 262 263 266 268 269 267 260 252 253 252 249 250 253 254 257 259 262 264 266 269 272 273
254 255 254 253 251 249 246 244 242 242 243 244 245 247 250 250 249 249 247 246 245 249 253 256 258 257 259 259 262 265 267 267 264 257 253 253 254 253 254 256 256 257 259 261 264 267 269 272 273
252 254 255 255 255 253 247 243 241 240 238 239 241 244 248 250 250 249 247 247 249 253 257 262 265 262 259 257 259 262 264 264 263 259 252 250 254 256 258 258 258 258 260 263 267 270 271 273 275
251 253 255 255 255 253 247 244 241 240 237 236 238 241 245 248 249 246 247 249 253 258 264 268 268 266 261 257 257 260 261 258 258 257 252 251 253 256 258 259 259 260 262 266 269 272 274 276 278
252 254 256 255 250 249 247 245 241 239 237 236 236 238 244 247 249 247 245 248 252 256 259 263 267 267 263 257 253 254 255 252 252 252 252 254 254 255 259 259 258 259 264 271 275 279 283 286 286
253 256 258 258 245 243 245 246 243 239 239 237 236 236 239 244 247 249 248 250 254 258 261 264 266 268 265 260 254 250 249 248 247 247 249 253 255 255 255 254 252 251 255 265 275 282 286 288 288
253 256 258 255 242 239 243 249 248 243 241 240 239 238 239 240 242 245 248 250 253 258 262 263 263 263 262 261 258 254 252 249 247 246 247 249 250 250 248 248 248 249 258 270 280 287 290 291 290
250 254 256 254 243 237 241 248 249 246 244 244 242 240 240 240 240 241 244 247 249 253 259 259 255 254 256 257 258 258 256 254 252 249 247 248 248 248 248 250 251 255 263 273 282 290 296 299 298
248 252 256 251 239 232 236 244 248 247 246 246 246 244 243 243 243 242 243 244 246 248 253 253 248 247 249 252 255 259 258 256 254 253 250 250 250 250 251 253 256 259 265 274 283 290 297 302 303
247 252 251 242 234 229 232 241 248 249 249 250 250 249 246 244 245 246 245 245 245 246 248 248 245 244 246 248 250 255 259 259 257 254 253 252 253 253 254 256 258 261 266 273 281 288 296 300 302
246 249 243 238 235 232 232 239 248 252 252 253 253 253 251 246 245 246 247 247 247 247 246 245 242 242 244 247 249 253 257 261 261 259 257 256 256 256 256 257 259 261 266 273 281 288 294 296 295
245 243 238 235 234 233 235 240 248 254 254 254 254 255 254 250 245 245 247 248 249 249 247 244 240 239 242 246 249 253 258 261 263 262 260 258 257 259 260 259 260 262 266 272 280 286 290 292 289
241 239 237 233 233 233 235 240 247 251 253 253 253 254 254 252 248 244 245 247 248 248 248 246 243 241 242 245 248 252 257 260 262 264 264 261 260 261 262 263 263 263 266 272 279 283 287 289 286
240 239 238 236 234 234 237 240 248 249 252 251 251 252 253 252 249 246 245 246 248 247 247 247 246 245 246 248 250 253 256 258 260 263 265 265 265 265 264 264 264 264 266 270 275 280 285 287 284
237 238 239 240 240 238 241 244 250 245 248 251 251 251 252 250 248 245 245 245 247 248 247 248 248 248 249 251 254 256 257 258 260 264 267 268 268 267 264 262 262 263 265 268 272 278 283 284 282
234 237 239 241 242 241 245 246 246 247 249 251 252 251 249 247 246 243 242 244 246 247 247 248 248 249 250 252 254 256 258 259 261 264 266 267 267 265 262 261 262 262 264 267 273 279 282 282 280
233 237 240 243 246 248 251 253 246 248 251 251 251 251 250 247 246 245 243 242 244 246 247 248 248 248 250 253 255 256 258 260 261 262 263 263 264 262 259 259 261 263 265 269 276 281 282 281 280
236 242 246 250 253 255 256 257 255 251 254 254 253 252 251 248 247 246 245 243 244 246 246 246 247 248 250 252 256 258 259 260 261 261 259 260 262 261 257 258 261 264 269 273 279 283 284 283 284
244 249 253 255 256 256 257 258 260 259 258 257 255 253 252 249 248 247 247 245 244 246 247 245 245 247 249 251 254 257 259 260 261 262 259 261 262 259 257 258 261 266 272 276 280 283 285 286 288
252 256 259 260 261 260 259 258 261 263 262 259 255 252 251 249 247 247 247 246 244 245 247 246 244 245 247 250 253 257 260 262 263 262 260 261 261 259 258 260 263 268 273 277 281 283 285 286 289
260 264 266 267 267 267 266 261 260 261 261 260 259 255 251 249 247 246 246 245 244 244 247 247 243 243 246 249 252 256 259 262 262 260 259 260 261 260 259 261 266 271 275 279 282 284 285 287 289
268 269 271 272 272 270 269 268 261 261 259 258 258 256 253 248 246 244 244 244 243 243 245 246 244 244 246 248 251 254 257 258 258 258 259 260 262 262 262 264 268 273 277 280 283 285 287 287 289
274 275 276 276 274 273 272 271 265 263 260 256 254 254 253 249 244 242 241 242 241 241 242 243 243 244 245 247 250 253 255 258 258 258 259 260 262 264 265 268 272 275 279 282 284 285 287 288 291
279 280 280 279 278 277 276 274 268 265 263 258 253 250 249 249 245 240 239 239 239 239 240 240 241 244 246 247 250 254 257 259 260 260 261 262 263 265 268 271 274 277 280 282 284 286 288 290 291
283 283 284 283 282 283 280 276 272 265 262 258 253 248 245 244 244 240 237 237 237 237 237 237 240 243 246 247 249 254 257 260 262 264 264 264 264 266 269 273 276 279 282 284 285 287 289 290 291
285 285 287 289 290 290 286 284 281 269 260 255 251 247 243 240 240 238 235 234 234 234 233 233 237 241 244 246 248 253 257 261 264 265 266 265 266 268 271 275 278 281 283 285 286 288 290 291 292
288 289 292 293 294 293 291 292 287 274 260 253 249 245 241 238 235 235 233 232 231 231 230 231 234 238 242 244 247 251 256 260 263 266 267 267 268 270 273 277 280 282 284 286 288 289 291 293 294
292 296 298 297 296 294 293 293 292 279 263 256 249 242 237 233 230 229 229 229 229 228 228 229 232 235 239 241 244 250 255 260 263 266 267 268 271 273 276 279 282 284 286 288 290 292 293 294 295
296 301 301 298 296 295 294 294 290 278 267 258 247 237 232 227 224 224 224 225 225 226 226 228 231 234 237 240 243 249 255 259 263 265 267 270 273 277 280 282 284 285 287 289 292 293 294 296 297
299 304 303 300 298 296 295 300 293 280 265 255 244 233 225 220 217 218 220 221 222 224 224 226 230 233 235 238 242 248 254 258 261 264 267 271 276 280 282 283 285 287 289 292 293 294 296 298 299
Height
5825 5826 5828 5830 5833 5835 5837 5838 5839 5840 5841 5842 5843 5844 5846 5847 5849 5852 5851 5850 5850 5850 5850 5850 5851 5851 5851 5852 5852 5852 5852 5852 5851 5850 5850 5850 5850 5850 5850 5850 5849 5848 5848 5847 5847 5847 5847 5846 5846
5820 5822 5823 5825 5827 5830 5832 5833 5834 5835 5837 5838 5839 5840 5841 5842 5844 5846 5846 5846 5847 5846 5846 5846 5847 5848 5848 5848 5848 5848 5849 5849 5848 5848 5847 5847 5847 5847 5847 5847 5847 5846 5845 5845 5844 5844 5844 5843 5843
5815 5817 5818 5820 5823 5826 5827 5827 5828 5829 5832 5833 5834 5835 5837 5838 5839 5841 5842 5843 5843 5843 5843 5843 5844 5844 5845 5844 5844 5845 5845 5845 5845 5845 5845 5845 5844 5844 5844 5844 5844 5843 5843 5842 5842 5842 5841 5840 5840
5810 5811 5813 5816 5819 5821 5820 5821 5822 5824 5826 5828 5830 5831 5832 5833 5835 5837 5838 5839 5840 5840 5840 5840 5840 5840 5841 5841 5841 5841 5842 5842 5842 5842 5842 5842 5842 5842 5841 5841 5840 5840 5840 5839 5839 5839 5839 5838 5837
5804 5806 5807 5810 5814 5815 5814 5814 5816 5818 5820 5823 5825 5826 5827 5829 5831 5832 5833 5834 5835 5836 5837 5837 5837 5836 5837 5837 5837 5838 5838 5838 5839 5839 5839 5839 5839 5839 5839 5838 5837 5836 5836 5837 5837 5837 5836 5835 5833
5799 5800 5802 5805 5809 5809 5809 5809 5811 5813 5815 5818 5820 5822 5823 5824 5826 5827 5829 5830 5831 5831 5832 5832 5832 5832 5833 5833 5833 5834 5834 5835 5835 5835 5836 5836 5836 5836 5835 5835 5834 5834 5834 5834 5834 5833 5832 5831 5830
5793 5794 5795 5799 5802 5803 5804 5804 5806 5809 5810 5812 5814 5817 5818 5819 5820 5822 5823 5824 5826 5827 5827 5827 5828 5828 5828 5829 5829 5830 5830 5831 5831 5831 5832 5832 5832 5832 5832 5832 5831 5831 5831 5831 5831 5830 5828 5827 5825
5787 5788 5789 5793 5796 5798 5798 5798 5801 5803 5805 5806 5809 5811 5813 5814 5815 5816 5818 5819 5820 5822 5823 5823 5823 5823 5824 5825 5825 5825 5826 5826 5827 5827 5828 5829 5829 5828 5828 5828 5828 5828 5827 5827 5826 5825 5823 5822 5819
5780 5782 5784 5788 5789 5791 5792 5792 5794 5797 5799 5800 5802 5805 5808 5809 5810 5811 5813 5814 5815 5817 5817 5817 5818 5818 5819 5820 5821 5821 5821 5822 5822 5823 5823 5824 5824 5824 5824 5824 5824 5824 5823 5822 5821 5820 5818 5816 5814
5774 5776 5780 5781 5782 5784 5784 5785 5787 5790 5793 5795 5797 5798 5801 5804 5806 5807 5808 5809 5810 5811 5812 5813 5813 5814 5815 5816 5816 5817 5817 5817 5818 5818 5818 5819 5819 5819 5819 5819 5819 5819 5818 5817 5816 5815 5813 5811 5809
5767 5770 5772 5773 5775 5776 5778 5779 5780 5783 5787 5790 5791 5792 5795 5798 5801 5802 5803 5804 5804 5806 5807 5807 5808 5809 5810 5811 5812 5812 5813 5813 5813 5813 5813 5813 5813 5814 5814 5814 5814 5813 5812 5812 5810 5809 5807 5805 5803
5761 5763 5764 5766 5767 5770 5772 5774 5775 5776 5781 5783 5784 5785 5787 5790 5793 5796 5797 5798 5799 5801 5802 5802 5803 5804 5805 5806 5807 5808 5808 5808 5808 5808 5808 5808 5808 5808 5808 5808 5808 5807 5806 5805 5804 5803 5801 5799 5798
5753 5756 5757 5759 5761 5764 5766 5768 5768 5769 5774 5775 5777 5779 5781 5783 5785 5788 5790 5792 5794 5795 5796 5796 5797 5798 5800 5801 5802 5802 5803 5803 5803 5803 5802 5802 5803 5803 5803 5802 5801 5801 5800 5799 5798 5797 5795 5793 5792
5746 5749 5752 5753 5755 5756 5759 5760 5760 5765 5766 5767 5769 5772 5774 5776 5778 5780 5783 5785 5787 5788 5789 5790 5791 5793 5794 5795 5796 5797 5797 5798 5798 5798 5797 5797 5797 5797 5797 5796 5795 5794 5793 5792 5791 5790 5789 5787 5785
5739 5742 5745 5747 5748 5749 5751 5753 5754 5759 5757 5758 5761 5764 5767 5769 5771 5773 5776 5777 5779 5781 5782 5783 5785 5786 5788 5789 5790 5790 5791 5791 5792 5792 5792 5792 5791 5791 5791 5790 5789 5788 5787 5786 5785 5783 5782 5780 5778
5732 5734 5737 5739 5740 5741 5744 5747 5748 5749 5749 5750 5752 5755 5758 5761 5763 5766 5768 5769 5771 5773 5775 5776 5777 5779 5781 5782 5783 5783 5784 5784 5785 5786 5786 5786 5785 5785 5784 5784 5783 5781 5780 5779 5778 5776 5774 5772 5770
5724 5727 5729 5731 5732 5733 5736 5739 5741 5741 5741 5742 5743 5745 5748 5751 5755 5758 5760 5761 5763 5765 5767 5769 5770 5772 5773 5774 5775 5776 5776 5778 5779 5780 5780 5779 5779 5778 5778 5777 5776 5775 5774 5773 5771 5769 5767 5765 5763
5718 5719 5721 5722 5724 5725 5727 5730 5732 5732 5733 5734 5735 5736 5738 5741 5746 5748 5751 5753 5755 5757 5759 5761 5763 5764 5765 5767 5768 5768 5769 5770 5772 5773 5773 5773 5772 5771 5771 5770 5769 5768 5767 5766 5764 5762 5759 5757 5755
5710 5711 5712 5713 5713 5715 5718 5720 5722 5723 5724 5726 5726 5726 5727 5731 5734 5737 5741 5744 5746 5748 5750 5753 5755 5756 5757 5759 5760 5761 5762 5763 5764 5765 5766 5765 5765 5764 5764 5763 5762 5761 5760 5758 5757 5755 5753 5750 5747
5701 5702 5703 5703 5702 5704 5707 5711 5712 5712 5714 5715 5716 5716 5717 5720 5723 5726 5730 5733 5736 5739 5741 5744 5746 5748 5749 5750 5751 5753 5754 5756 5757 5758 5758 5758 5757 5757 5757 5756 5755 5754 5752 5751 5749 5747 5745 5742 5739
5694 5694 5693 5692 5691 5692 5694 5698 5703 5701 5702 5703 5704 5705 5706 5709 5712 5715 5718 5722 5726 5729 5732 5735 5738 5739 5740 5742 5744 5745 5747 5748 5749 5749 5750 5750 5750 5750 5750 5749 5748 5746 5745 5743 5741 5739 5736 5734 5730
5685 5684 5683 5681 5679 5679 5680 5679 5690 5688 5690 5691 5691 5692 5693 5696 5699 5702 5706 5710 5715 5719 5723 5726 5729 5731 5732 5734 5736 5738 5739 5741 5741 5742 5742 5743 5743 5743 5742 5741 5740 5738 5736 5735 5732 5730 5727 5724 5721
5675 5673 5672 5668 5664 5663 5666 5658 5669 5671 5673 5676 5677 5677 5678 5681 5685 5689 5693 5698 5703 5707 5712 5717 5720 5722 5724 5726 5728 5730 5732 5733 5734 5734 5735 5735 5735 5735 5734 5733 5731 5729 5728 5725 5723 5720 5717 5713 5710
5664 5662 5658 5653 5648 5646 5651 5638 5643 5655 5652 5655 5659 5661 5663 5666 5671 5676 5680 5685 5691 5696 5702 5707 5710 5713 5716 5719 5721 5722 5724 5726 5726 5726 5727 5727 5727 5727 5725 5724 5722 5720 5718 5716 5713 5710 5706 5703 5699
5654 5650 5644 5637 5631 5629 5628 5617 5622 5634 5631 5631 5635 5640 5645 5651 5656 5662 5668 5674 5680 5686 5692 5697 5701 5705 5708 5711 5713 5715 5717 5718 5719 5719 5720 5720 5719 5718 5716 5714 5712 5710 5708 5705 5702 5699 5695 5691 5687
5642 5637 5631 5623 5616 5610 5603 5600 5605 5609 5607 5608 5611 5617 5626 5635 5641 5648 5656 5662 5669 5676 5682 5687 5691 5696 5700 5703 5706 5708 5709 5710 5711 5712 5712 5712 5711 5709 5707 5705 5703 5701 5698 5695 5692 5688 5684 5680 5675
5630 5625 5618 5609 5601 5594 5589 5587 5589 5589 5586 5587 5590 5597 5608 5618 5627 5635 5643 5651 5658 5666 5672 5678 5682 5687 5691 5695 5698 5700 5701 5703 5704 5704 5704 5703 5702 5700 5698 5696 5694 5691 5688 5685 5682 5677 5673 5668 5663
5620 5614 5607 5598 5589 5582 5578 5576 5577 5575 5572 5572 5575 5581 5591 5602 5613 5622 5631 5640 5648 5656 5663 5668 5673 5677 5682 5686 5690 5692 5694 5695 5696 5696 5696 5695 5693 5692 5690 5687 5684 5682 5679 5675 5671 5666 5662 5657 5651
5611 5606 5597 5589 5582 5574 5567 5568 5566 5563 5561 5561 5563 5567 5576 5588 5600 5610 5620 5629 5637 5646 5654 5659 5664 5669 5673 5678 5682 5685 5687 5688 5688 5688 5687 5686 5685 5684 5681 5678 5675 5672 5669 5665 5660 5656 5650 5645 5638
5604 5598 5589 5581 5573 5565 5558 5559 5557 5553 5551 5551 5554 5557 5564 5575 5588 5599 5609 5619 5629 5638 5645 5651 5656 5661 5666 5670 5674 5677 5679 5680 5680 5679 5679 5678 5677 5675 5672 5669 5666 5662 5658 5654 5649 5644 5639 5632 5624